Starlink 11112

operational
NORAD ID: 60115 Int'l Des: 2024-118 Owner: SPXS Country: US Constellation: starlink
LEOCIRCULAR

Starlink 11112について

説明を読み込み中...

リアルタイム位置

3D地球を読み込み中...

次回通過

高度履歴

Altitude vs Time

uPlot chart will show altitude changes over time

軌道要素

1 60115U 24118C 26095.19570030 .00003110 00000-0 30529-4 0 9994
2 60115 53.1570 90.8004 0001084 118.3801 241.7326 15.69697717102154
Epoch: Apr 5, 2026 • Age: 11 hours

現在のステータス

高度 365.5 km
速度 7.70 km/s
衛星直下点 52.74°N, 119.11°E
打ち上げ日 Jun 24, 2024
運用期間 1.7 years
タイプ internet

技術仕様

分類 Payload
質量 960.00 kg
乾燥質量 910.00 kg
総質量 960.00 kg
長さ 0.30 m
直径 4.10 m
スパン 29.00 m
形状 Box + pan
製造者 SPXS
バスタイプ Starlink V2MD
フェーズステータス In Orbit
所有者/国 SPXS/US

大規模コンステレーション

Loading constellations...